Location: LDNL
(36.4545°S, 141.6685°E)
Time: 03:17:35
(UTC+11:00)

A-11 Canister half - Pass Details

Date: 13 August 2022
Orbit: 1524 x 1684 km, 47.3° (Epoch: 05 October)

Event Time Altitude Azimuth Distance (km) Brightness Sun altitude
Rises 01:29:38 0° 241° (WSW) 4,727 - -65.5°
Reaches altitude 10° 01:32:59 10° 249° (WSW) 3,757 - -65.2°
Maximum altitude 01:41:21 36° 311° (NW) 2,322 - -64.2°
Drops below altitude 10° 01:49:56 10° 13° (NNE) 3,843 - -63.1°
Sets 01:53:25 0° 21° (NNE) 4,846 - -62.7°
